Weather History for Lyndonville, VT

Change the Weather History Date:

Sunday, March 24, 2013

  Actual Average (K1V4) Record (K1V4)
Temperature  
Mean Temperature 30 °F 34 °F  
Max Temperature 35 °F 45 °F 70 °F (1938)
Min Temperature 25 °F 23 °F -12 °F (1906)
Degree Days  
Heating Degree Days 36 31  
Month to date heating degree days 871  
Since 1 July heating degree days 6595  
Cooling Degree Days 0 0  
Month to date cooling degree days 0  
Year to date cooling degree days 0  
Moisture  
Dew Point 21 °F    
Average Humidity 68    
Maximum Humidity 82    
Minimum Humidity 54    
Precipitation  
Precipitation 0.00 in 0.09 in 0.75 in (1907)
Month to date precipitation 1.91  
Year to date precipitation 6.59  
Sea Level Pressure  
Sea Level Pressure 29.78 in    
Wind  
Wind Speed 8 mph (NW)    
Max Wind Speed 12 mph    
Max Gust Speed 20 mph    
Visibility 9 miles    
Events Snow    
T = Trace of Precipitation, MM = Missing Value Source: NWS Daily Summary

Daily Weather History Graph

Daily Weather History Graph

Search for Another Location

Airport:

Trip Planner

Search our weather history database for the weather conditions in past years. The results will help you decide how hot, cold, wet, or windy it might be!

Date:

Astronomy

Mar. 24, 2013 Rise Set
Actual Time 6:43 AM EDT 7:05 PM EDT
Civil Twilight 6:14 AM EDT 7:35 PM EDT
Nautical Twilight 5:39 AM EDT 8:09 PM EDT
Astronomical Twilight 5:04 AM EDT 8:44 PM EDT
Moon 4:26 PM EDT (3/24) 4:58 AM EDT (3/24)
Length of Visible Light 13h 20m
Length of Day
12h 22m
Waxing Gibbous, 91% of the Moon is Illuminated
Mar 24
Waxing Gibbous
Mar 27
Full
Apr 3
Last Quarter
Apr 10
New
Apr 18
First Quarter

Hourly Weather History & Observations

Time (EDT) Temp. Windchill Dew Point Humidity Pressure Visibility Wind Dir Wind Speed Gust Speed Precip Events Conditions
12:15 AM 31.1 °F 22.4 °F 20.3 °F 64% 29.72 in 10.0 mi WNW 10.4 mph 16.1 mph N/A Snow Light Snow
12:35 AM 30.9 °F 23.5 °F 20.7 °F 66% 29.72 in 7.0 mi WNW 8.1 mph - N/A Snow Light Snow
12:55 AM 30.9 °F 25.2 °F 20.8 °F 66% 29.73 in 7.0 mi WNW 5.8 mph 16.1 mph N/A Snow Light Snow
1:15 AM 30.6 °F 22.4 °F 21.6 °F 69% 29.73 in 7.0 mi West 9.2 mph - N/A Snow Light Snow
1:35 AM 30.2 °F 21.3 °F 22.6 °F 73% 29.73 in 3.0 mi WNW 10.4 mph - N/A Snow Light Snow
1:55 AM 30.0 °F 20.5 °F 22.1 °F 72% 29.73 in 7.0 mi WNW 11.5 mph 17.3 mph N/A Snow Light Snow
2:15 AM 30.2 °F 23.4 °F 22.1 °F 72% 29.74 in 5.0 mi West 6.9 mph 17.3 mph N/A Snow Light Snow
2:35 AM 29.7 °F 21.3 °F 22.6 °F 75% 29.75 in 3.0 mi West 9.2 mph - N/A Snow Light Snow
2:55 AM 29.3 °F 23.2 °F 22.8 °F 77% 29.75 in 2.5 mi West 5.8 mph - N/A Snow Light Snow
3:35 AM 29.1 °F 21.3 °F 23.2 °F 78% 29.74 in 3.0 mi WNW 8.1 mph - N/A Snow Light Snow
3:55 AM 28.4 °F 20.4 °F 23.5 °F 82% 29.74 in 3.0 mi West 8.1 mph - N/A Snow Light Snow
4:15 AM 28.4 °F 20.4 °F 23.5 °F 82% 29.74 in 4.0 mi WNW 8.1 mph - N/A Snow Light Snow
4:35 AM 28.0 °F 20.0 °F 22.6 °F 80% 29.73 in 10.0 mi WNW 8.1 mph - N/A Snow Light Snow
4:55 AM 28.4 °F 21.2 °F 22.6 °F 79% 29.73 in 10.0 mi WNW 6.9 mph - N/A   Scattered Clouds
5:15 AM 28.8 °F 20.9 °F 22.1 °F 76% 29.73 in 10.0 mi WNW 8.1 mph 16.1 mph N/A   Overcast
5:35 AM 28.6 °F 19.9 °F 21.7 °F 76% 29.73 in 10.0 mi NW 9.2 mph - N/A   Overcast
5:55 AM 28.8 °F 20.9 °F 21.9 °F 76% 29.74 in 10.0 mi WNW 8.1 mph - N/A   Overcast
6:15 AM 28.4 °F 19.7 °F 21.9 °F 77% 29.73 in 10.0 mi NW 9.2 mph - N/A   Overcast
6:35 AM 28.4 °F 20.4 °F 21.7 °F 76% 29.75 in 10.0 mi WNW 8.1 mph - N/A   Overcast
6:55 AM 28.6 °F 20.7 °F 21.7 °F 76% 29.75 in 10.0 mi WNW 8.1 mph - N/A   Overcast
7:15 AM 28.4 °F 22.2 °F 21.9 °F 77% 29.76 in 10.0 mi West 5.8 mph - N/A   Overcast
7:35 AM 28.8 °F 21.7 °F 21.9 °F 76% 29.78 in 10.0 mi WNW 6.9 mph - N/A   Overcast
7:55 AM 29.3 °F 22.3 °F 21.9 °F 74% 29.79 in 10.0 mi WNW 6.9 mph - N/A   Overcast
8:15 AM 29.7 °F 23.7 °F 21.9 °F 73% 29.81 in 10.0 mi West 5.8 mph - N/A   Overcast
8:35 AM 30.0 °F 24.1 °F 21.7 °F 71% 29.81 in 10.0 mi West 5.8 mph - N/A   Overcast
8:55 AM 30.2 °F 21.9 °F 21.6 °F 70% 29.82 in 10.0 mi NW 9.2 mph - N/A   Overcast
9:15 AM 30.6 °F 23.1 °F 21.7 °F 70% 29.82 in 10.0 mi NW 8.1 mph - N/A   Overcast
9:35 AM 31.5 °F 24.2 °F 21.7 °F 67% 29.81 in 10.0 mi WNW 8.1 mph 16.1 mph N/A   Overcast
9:55 AM 31.8 °F 23.9 °F 21.6 °F 66% 29.81 in 10.0 mi WNW 9.2 mph 16.1 mph N/A   Overcast
10:15 AM 32.0 °F 23.0 °F 20.3 °F 62% 29.81 in 10.0 mi NW 11.5 mph 19.6 mph N/A   Overcast
10:35 AM 32.0 °F 24.2 °F 20.7 °F 63% 29.82 in 10.0 mi WNW 9.2 mph - N/A   Overcast
10:55 AM 32.0 °F 24.2 °F 20.3 °F 62% 29.82 in 10.0 mi NW 9.2 mph - N/A   Overcast
11:15 AM 31.5 °F 22.9 °F 20.5 °F 64% 29.81 in 10.0 mi NW 10.4 mph 17.3 mph N/A   Overcast
11:35 AM 32.0 °F 23.0 °F 20.3 °F 62% 29.81 in 10.0 mi NW 11.5 mph 16.1 mph N/A   Overcast
11:55 AM 32.0 °F 24.2 °F 20.7 °F 63% 29.81 in 10.0 mi NNW 9.2 mph - N/A   Overcast
12:15 PM 32.9 °F 24.1 °F 19.9 °F 59% 29.81 in 10.0 mi West 11.5 mph 16.1 mph N/A   Overcast
12:35 PM 32.5 °F 24.2 °F 19.6 °F 59% 29.81 in 10.0 mi NW 10.4 mph 17.3 mph N/A   Overcast
12:55 PM 32.9 °F 28.5 °F 20.1 °F 59% 29.81 in 10.0 mi NW 4.6 mph - N/A   Overcast
1:15 PM 32.4 °F 24.6 °F 20.3 °F 61% 29.81 in 10.0 mi NW 9.2 mph - N/A   Overcast
1:35 PM 32.9 °F 25.9 °F 19.6 °F 58% 29.81 in 10.0 mi NW 8.1 mph - N/A   Overcast
1:55 PM 33.3 °F 26.4 °F 19.8 °F 58% 29.81 in 10.0 mi WNW 8.1 mph - N/A   Overcast
2:15 PM 33.3 °F 25.1 °F 19.9 °F 58% 29.81 in 10.0 mi WNW 10.4 mph - N/A   Overcast
2:35 PM 32.9 °F 24.7 °F 20.1 °F 59% 29.81 in 10.0 mi WNW 10.4 mph - N/A   Overcast
2:55 PM 33.1 °F 26.9 °F 20.1 °F 59% 29.81 in 10.0 mi NW 6.9 mph - N/A   Overcast
3:15 PM 32.9 °F 25.9 °F 20.3 °F 60% 29.81 in 10.0 mi NW 8.1 mph - N/A   Overcast
3:35 PM 33.1 °F 28.7 °F 20.7 °F 60% 29.81 in 10.0 mi NNW 4.6 mph - N/A   Overcast
3:55 PM 33.3 °F 30.2 °F 19.6 °F 57% 29.81 in 10.0 mi WNW 3.5 mph - N/A   Overcast
4:15 PM 33.3 °F 27.9 °F 19.8 °F 58% 29.80 in 10.0 mi NW 5.8 mph - N/A   Overcast
4:35 PM 34.0 °F 28.0 °F 19.0 °F 54% 29.79 in 10.0 mi WNW 6.9 mph - N/A   Scattered Clouds
4:55 PM 34.9 °F 28.3 °F 19.6 °F 54% 29.79 in 10.0 mi NNW 8.1 mph - N/A   Scattered Clouds
5:15 PM 33.1 °F 26.1 °F 19.6 °F 58% 29.79 in 10.0 mi NNW 8.1 mph - N/A   Scattered Clouds
5:35 PM 33.1 °F 26.1 °F 20.3 °F 59% 29.79 in 10.0 mi NW 8.1 mph - N/A   Clear
5:55 PM 33.6 °F 26.2 °F 20.1 °F 58% 29.79 in 10.0 mi NNW 9.2 mph - N/A   Clear
6:15 PM 33.3 °F 25.1 °F 20.1 °F 59% 29.79 in 10.0 mi North 10.4 mph - N/A   Scattered Clouds
6:35 PM 32.2 °F 25.8 °F 20.3 °F 62% 29.79 in 10.0 mi North 6.9 mph - N/A   Scattered Clouds
6:55 PM 32.4 °F 25.3 °F 20.7 °F 62% 29.79 in 10.0 mi North 8.1 mph - N/A   Scattered Clouds
7:15 PM 31.8 °F 28.5 °F 20.7 °F 63% 29.79 in 10.0 mi NNW 3.5 mph - N/A   Scattered Clouds
7:35 PM 31.1 °F 27.7 °F 20.8 °F 66% 29.80 in 10.0 mi North 3.5 mph - N/A   Clear
7:55 PM 31.6 °F - 21.0 °F 65% 29.81 in 10.0 mi Calm Calm - N/A   Scattered Clouds
8:15 PM 30.9 °F - 20.8 °F 66% 29.81 in 10.0 mi Calm Calm - N/A   Mostly Cloudy
8:35 PM 30.4 °F 25.6 °F 20.8 °F 68% 29.81 in 10.0 mi North 4.6 mph - N/A   Overcast
8:55 PM 30.9 °F 26.2 °F 21.0 °F 67% 29.80 in 10.0 mi NNW 4.6 mph - N/A   Scattered Clouds
9:15 PM 29.1 °F 25.4 °F 20.5 °F 70% 29.80 in 10.0 mi NW 3.5 mph - N/A   Scattered Clouds
9:35 PM 28.9 °F 23.9 °F 20.3 °F 70% 29.80 in 10.0 mi NW 4.6 mph - N/A   Clear
9:55 PM 29.3 °F 25.6 °F 21.0 °F 71% 29.81 in 10.0 mi NW 3.5 mph - N/A   Clear
10:15 PM 28.9 °F - 20.3 °F 70% 29.81 in 10.0 mi Calm Calm - N/A   Clear
10:35 PM 28.4 °F - 20.8 °F 73% 29.80 in 10.0 mi Calm Calm - N/A   Scattered Clouds
10:55 PM 26.8 °F - 19.9 °F 75% 29.80 in 10.0 mi Calm Calm - N/A   Scattered Clouds
11:15 PM 27.1 °F - 20.7 °F 77% 29.79 in 10.0 mi Calm Calm - N/A   Scattered Clouds
11:35 PM 25.3 °F 21.1 °F 19.6 °F 79% 29.79 in 10.0 mi ENE 3.5 mph - N/A   Clear
11:55 PM 25.2 °F - 19.9 °F 81% 29.78 in 10.0 mi Calm Calm - N/A   Clear